Regional Weather Roundup
Issued by NWS

Home | Current Version | Previous Version | Text Only | Print | Product List | Glossary Off
Versions: 1 2 3 4 5 6 7 8 9 10 11 12 13 14 15 16 17 18 19 20 21 22 23 24 25 26 27 28 29 30 31 32 33 34 35 36 37 38 39 40 41 42 43 44 45 46 47 48 49 50

735
ASUS43 KLOT 251503
RWRIL

ILLINOIS REGIONAL WEATHER ROUNDUP
NATIONAL WEATHER SERVICE CHICAGO/ROMEOVILLE IL
1000 AM CDT WED MAY 25 2016

NOTE: "FAIR" INDICATES FEW OR NO CLOUDS BELOW 12,000 FEET WITH NO
SIGNIFICANT WEATHER AND/OR OBSTRUCTIONS TO VISIBILITY.

* THESE STATIONS ARE NOT UNDER NWS QUALITY CONTROL. THEY ALSO MAY NOT
  REPORT WEATHER SUCH AS PRECIPITATION OR FOG.

ILZ001-002-007-009-015-016-024-251600-
NORTHWEST ILLINOIS

CITY           SKY/WX    TMP DP  RH WIND       PRES   REMARKS
MOLINE         MOSUNNY   76  62  62 SE9G17    29.94F
STERLING*      CLOUDY    77  61  57 VRB5      29.98S
$$

ILZ003-004-008-010-011-017-018-251600-
NORTH CENTRAL ILLINOIS

CITY           SKY/WX    TMP DP  RH WIND       PRES   REMARKS
ROCKFORD       CLOUDY    79  66  64 S10       29.99S HX  81
FREEPORT*      CLOUDY    76  66  70 S13       30.00S
ROCHELLE*      MOSUNNY   78  64  61 S13       30.00S HX  80
DE KALB*       PTSUNNY   76  66  70 S10       30.00F
$$

ILZ005-006-012>014-019>023-251600-
NORTHEAST ILLINOIS

CITY           SKY/WX    TMP DP  RH WIND       PRES   REMARKS
CHICAGO-OHARE  CLOUDY    77  65  66 S12       30.00F
CHICAGO-MIDWAY MOSUNNY   77  62  59 S10       30.01F
AURORA         MOSUNNY   77  65  66 S12       30.00F
LANSING*       SUNNY     77  62  61 S10       30.02F
WAUKEGAN       SUNNY     80  65  59 SW5       29.99F HX  82
DUPAGE AIRPORT MOSUNNY   75  63  66 S8        30.00F
WHEELING       CLOUDY    78  65  63 S10       30.01F HX  80
MORRIS*        SUNNY     76  63  64 S6        29.99F
NORTHERLY ISL    N/A     77  62  59 S7          N/A
NORTHERLY ISL    N/A     77  62  59 S7          N/A
$$

LMZ740>746-251600-
SOUTHERN LAKE MICHIGAN

STATION/POSITION SKY/WX   TEMP    WIND        PRES    VSBY  WAVE
                          AIR SEA DIR/SP/G                  HT/PER
                          (F)     (DEG/KT/KT) (MB)    (MI)  (FT/S)
SOUTHERN BUOY              53 49  170/  8/  8 1016.6          1
WILMETTE HARBOR            61 57  170/  6/  8   N/A           1
HARRISON CRIB              71     170/ 12/ 12   N/A
BURNHAM HARBOR             76     160/  8/ 13   N/A
CALUMET HARBOR                    180/  9/ 12   N/A
BURNS HARBOR               74     200/ 10/ 15 1017.3F
MICHIGAN CITY              73     170/  8/  9   N/A
MICHIGAN CITY 6N           67 58  190/  4/  4   N/A           0
ST. JOSEPH                 64 59  170/  2/  2   N/A           1
$$

ILZ025>027-034>036-040-047-049-050-058-095>099-251600-
WEST-CENTRAL ILLINOIS

CITY           SKY/WX    TMP DP  RH WIND       PRES   REMARKS
QUINCY         PTSUNNY   73  63  70 S8        29.94F
MACOMB*        SUNNY     74  64  70 S12       29.97F
PITTSFIELD*    CLOUDY    71  65  80 SE10      29.98F
$$

ILZ028>032-037-038-041>044-048-051>054-059>061-251600-
CENTRAL ILLINOIS

CITY           SKY/WX    TMP DP  RH WIND       PRES   REMARKS
BLOOMINGTON    SUNNY     76  65  68 S12       30.01F
DECATUR        MOSUNNY   78  61  55 S13       30.01F HX  80
PEORIA         CLOUDY    73  63  70 S12       29.98F
LINCOLN*       MOSUNNY   78  63  59 S9        29.99F HX  80
SPRINGFIELD    MOSUNNY   77  63  61 S12       29.99F
TAYLORVILLE    NOT AVBL
$$

ILZ033-039-045-046-055>057-062-063-251600-
EAST-CENTRAL ILLINOIS

CITY           SKY/WX    TMP DP  RH WIND       PRES   REMARKS
CHAMPAIGN      SUNNY     76  60  57 SW10      30.03F
MATTOON        MOSUNNY   75  62  64 S12       30.03F
$$

ILZ079-100>102-251600-
SOUTHWEST ILLINOIS

CITY           SKY/WX    TMP DP  RH WIND       PRES   REMARKS
ALTON          CLOUDY    72  63  73 S9        30.01F
BELLEVILLE     CLOUDY    71  67  86 VRB5      30.02R
CAHOKIA*       CLOUDY    71  63  75 S6        30.01S
SPARTA*        LGT RAIN  67  64  89 S5        30.07R
$$

ILZ064>066-069>071-074>076-080>082-084>086-088>090-092>094-251600-
SOUTH-CENTRAL ILLINOIS

CITY           SKY/WX    TMP DP  RH WIND       PRES   REMARKS
CARBONDALE     TSTM      68  64  87 S8        30.07R
CAIRO*         CLOUDY    68  65  91 CALM      30.09R
EFFINGHAM*     CLOUDY    74  66  75 SE8G16    30.06S
MARION         CLOUDY    70  66  88 SE8       30.09R THUNDER
MT. VERNON     CLOUDY    66  63  88 SE3       30.06F
SALEM*         CLOUDY    73  64  75 S9        30.06R
$$

ILZ067-068-072-073-078-083-087-091-251600-
SOUTHEAST ILLINOIS

CITY           SKY/WX    TMP DP  RH WIND       PRES   REMARKS
LAWRENCEVILLE  PTSUNNY   77  62  59 S9        30.07F
FLORA*         MOSUNNY   75  66  72 S14G21    30.06S
HARRISBURG*    CLOUDY    68  66  94 S9        30.11R
ROBINSON*      PTSUNNY   76  64  66 S8        30.07F
CARMI*         MOSUNNY   74  66  77 S9        30.09R
$$

ABBREVIATIONS USED IN REMARKS
   TC - TEMPERATURE IN CELSIUS
  WCI - WIND CHILL INDEX
   HX - HEAT INDEX
  VSB - VISIBILITY
$$





USA.gov is the U.S. government's official web portal to all federal, state and local government web resources and services.